| time (UTC) | temp F | wind direction | speed MPH | gust MPH | rain 1hr in | rain 24hr in | rain mn in | humidity % | barometer mb |
| 20260510112537 | 49 | 355 | 0.0 | 0.0 | 0.00 | 0.32 | 0.00 | 94 | 1011.4 |
| 20260510112024 | 49 | 349 | 0.0 | 0.0 | 0.00 | 0.32 | 0.00 | 94 | 1011.4 |
| 20260510111538 | 49 | 349 | 0.0 | 1.0 | 0.00 | 0.32 | 0.00 | 94 | 1011.4 |
| 20260510111032 | 49 | 349 | 0.0 | 1.0 | 0.00 | 0.32 | 0.00 | 94 | 1011.4 |
| 20260510110539 | 49 | 349 | 0.0 | 0.0 | 0.00 | 0.32 | 0.00 | 94 | 1011.3 |
| 20260510110050 | 49 | 349 | 0.0 | 1.0 | 0.00 | 0.32 | 0.00 | 94 | 1011.1 |
| 20260510105535 | 49 | 349 | 0.0 | 1.0 | 0.00 | 0.39 | 0.00 | 94 | 1011.1 |
| 20260510105023 | 49 | 146 | 0.0 | 0.0 | 0.00 | 0.39 | 0.00 | 94 | 1011.2 |
| 20260510104556 | 49 | 146 | 0.0 | 0.0 | 0.00 | 0.39 | 0.00 | 94 | 1011.2 |
| 20260510104029 | 49 | 147 | 0.0 | 2.0 | 0.00 | 0.39 | 0.00 | 94 | 1011.1 |
| 20260510103536 | 48 | 148 | 1.0 | 2.0 | 0.00 | 0.39 | 0.00 | 94 | 1011.0 |
| 20260510103050 | 48 | 196 | 0.0 | 0.0 | 0.00 | 0.39 | 0.00 | 94 | 1011.1 |
| 20260510102523 | 48 | 196 | 0.0 | 0.0 | 0.00 | 0.39 | 0.00 | 94 | 1010.9 |
| 20260510102028 | 48 | 196 | 0.0 | 1.0 | 0.00 | 0.39 | 0.00 | 94 | 1010.8 |
| 20260510101524 | 48 | 196 | 0.0 | 1.0 | 0.00 | 0.39 | 0.00 | 94 | 1010.7 |
| 20260510101033 | 48 | 196 | 0.0 | 1.0 | 0.00 | 0.39 | 0.00 | 94 | 1010.5 |
| 20260510100538 | 48 | 195 | 0.0 | 0.0 | 0.00 | 0.39 | 0.00 | 94 | 1010.5 |
| 20260510100033 | 48 | 195 | 0.0 | 0.0 | 0.00 | 0.39 | 0.00 | 94 | 1010.6 |
| 20260510095547 | 48 | 195 | 0.0 | 0.0 | 0.00 | 0.47 | 0.00 | 94 | 1010.5 |
| 20260510095033 | 48 | 196 | 0.0 | 0.0 | 0.00 | 0.47 | 0.00 | 94 | 1010.4 |
| 20260510094529 | 48 | 196 | 0.0 | 0.0 | 0.00 | 0.47 | 0.00 | 94 | 1010.4 |
| 20260510094043 | 48 | 196 | 0.0 | 0.0 | 0.00 | 0.47 | 0.00 | 94 | 1010.3 |
| 20260510093528 | 48 | 196 | 0.0 | 0.0 | 0.00 | 0.47 | 0.00 | 94 | 1010.2 |
| 20260510093041 | 48 | 196 | 0.0 | 0.0 | 0.00 | 0.47 | 0.00 | 94 | 1009.9 |
| 20260510092527 | 48 | 196 | 0.0 | 1.0 | 0.00 | 0.47 | 0.00 | 94 | 1009.9 |
| 20260510092022 | 48 | 196 | 0.0 | 1.0 | 0.00 | 0.47 | 0.00 | 94 | 1009.8 |
| 20260510091556 | 48 | 196 | 0.0 | 0.0 | 0.00 | 0.47 | 0.00 | 94 | 1009.6 |
| 20260510091039 | 48 | 195 | 0.0 | 1.0 | 0.00 | 0.47 | 0.00 | 94 | 1009.7 |
| 20260510090534 | 48 | 196 | 0.0 | 2.0 | 0.00 | 0.47 | 0.00 | 94 | 1009.7 |
| 20260510090047 | 48 | 196 | 0.0 | 2.0 | 0.00 | 0.47 | 0.00 | 94 | 1009.8 |
| 20260510085532 | 48 | 196 | 1.0 | 2.0 | 0.00 | 0.53 | 0.00 | 94 | 1009.8 |
| 20260510085026 | 48 | 196 | 0.0 | 1.0 | 0.00 | 0.53 | 0.00 | 94 | 1009.9 |
| 20260510084531 | 48 | 196 | 0.0 | 1.0 | 0.00 | 0.53 | 0.00 | 94 | 1009.8 |
| 20260510084026 | 48 | 196 | 0.0 | 2.0 | 0.00 | 0.53 | 0.00 | 94 | 1009.9 |
| 20260510083559 | 48 | 196 | 0.0 | 2.0 | 0.00 | 0.53 | 0.00 | 94 | 1010.1 |
| 20260510083025 | 48 | 184 | 1.0 | 2.0 | 0.00 | 0.53 | 0.00 | 94 | 1010.1 |
| 20260510082534 | 48 | 194 | 1.0 | 2.0 | 0.00 | 0.53 | 0.00 | 94 | 1010.2 |
| 20260510082049 | 48 | 201 | 1.0 | 3.0 | 0.00 | 0.53 | 0.00 | 94 | 1010.5 |
| 20260510081603 | 48 | 201 | 1.0 | 3.0 | 0.00 | 0.53 | 0.00 | 94 | 1010.5 |
| 20260510081028 | 48 | 175 | 0.0 | 2.0 | 0.00 | 0.53 | 0.00 | 94 | 1010.5 |
| 20260510080543 | 48 | 175 | 0.0 | 2.0 | 0.00 | 0.53 | 0.00 | 94 | 1010.4 |
| 20260510080028 | 48 | 175 | 1.0 | 3.0 | 0.00 | 0.53 | 0.00 | 94 | 1010.4 |
| 20260510075536 | 48 | 174 | 0.0 | 3.0 | 0.00 | 0.53 | 0.00 | 95 | 1010.6 |
| 20260510075049 | 48 | 192 | 1.0 | 3.0 | 0.00 | 0.53 | 0.00 | 94 | 1010.7 |
| 20260510074536 | 48 | 185 | 0.0 | 2.0 | 0.00 | 0.53 | 0.00 | 94 | 1010.6 |
| 20260510074052 | 48 | 159 | 0.0 | 1.0 | 0.00 | 0.53 | 0.00 | 94 | 1010.6 |
| 20260510073546 | 48 | 159 | 0.0 | 2.0 | 0.00 | 0.53 | 0.00 | 95 | 1010.6 |
| 20260510073032 | 47 | 78 | 0.0 | 3.0 | 0.00 | 0.53 | 0.00 | 95 | 1010.7 |
| 20260510072525 | 47 | 169 | 0.0 | 0.0 | 0.00 | 0.53 | 0.00 | 94 | 1010.7 |
| 20260510072032 | 47 | 169 | 0.0 | 1.0 | 0.00 | 0.53 | 0.00 | 94 | 1010.6 |
| 20260510071527 | 47 | 169 | 0.0 | 1.0 | 0.00 | 0.53 | 0.00 | 94 | 1010.4 |
| 20260510071041 | 47 | 169 | 0.0 | 2.0 | 0.00 | 0.53 | 0.00 | 94 | 1010.3 |
| 20260510070528 | 47 | 169 | 0.0 | 2.0 | 0.00 | 0.53 | 0.00 | 94 | 1010.3 |
| 20260510070042 | 46 | 169 | 0.0 | 0.0 | 0.00 | 0.53 | 0.00 | 94 | 1010.1 |
| 20260510065528 | 46 | 169 | 0.0 | 0.0 | 0.00 | 0.53 | 0.00 | 94 | 1010.0 |
| 20260510065023 | 46 | 169 | 0.0 | 0.0 | 0.00 | 0.53 | 0.00 | 94 | 1010.1 |
| 20260510064556 | 46 | 169 | 0.0 | 2.0 | 0.00 | 0.53 | 0.00 | 94 | 1010.1 |
| 20260510064023 | 46 | 169 | 0.0 | 2.0 | 0.00 | 0.53 | 0.00 | 94 | 1010.2 |
| 20260510063533 | 46 | 169 | 0.0 | 1.0 | 0.00 | 0.53 | 0.00 | 94 | 1010.1 |
| 20260510063047 | 46 | 169 | 0.0 | 1.0 | 0.00 | 0.53 | 0.00 | 93 | 1010.1 |
| 20260510062533 | 46 | 169 | 0.0 | 0.0 | 0.00 | 0.53 | 0.00 | 93 | 1010.0 |
| 20260510062027 | 46 | 169 | 0.0 | 0.0 | 0.00 | 0.53 | 0.00 | 93 | 1010.0 |
| 20260510061534 | 46 | 169 | 0.0 | 0.0 | 0.00 | 0.53 | 0.00 | 93 | 1010.0 |
| 20260510061028 | 46 | 169 | 0.0 | 0.0 | 0.00 | 0.53 | 0.00 | 93 | 1010.0 |
| 20260510060543 | 46 | 169 | 0.0 | 0.0 | 0.00 | 0.53 | 0.00 | 93 | 1010.1 |
| 20260510060028 | 46 | 169 | 0.0 | 0.0 | 0.00 | 0.53 | 0.00 | 93 | 1010.2 |
| 20260510055543 | 46 | 169 | 0.0 | 0.0 | 0.00 | 0.53 | 0.00 | 93 | 1010.2 |
| 20260510055057 | 46 | 169 | 0.0 | 0.0 | 0.00 | 0.53 | 0.00 | 93 | 1010.2 |
| 20260510054541 | 46 | 169 | 0.0 | 0.0 | 0.00 | 0.53 | 0.00 | 93 | 1010.4 |
| 20260510054036 | 46 | 169 | 0.0 | 0.0 | 0.00 | 0.53 | 0.00 | 93 | 1010.3 |
| 20260510053522 | 46 | 169 | 0.0 | 0.0 | 0.00 | 0.53 | 0.00 | 94 | 1010.2 |
| 20260510053037 | 46 | 169 | 0.0 | 0.0 | 0.00 | 0.53 | 0.00 | 94 | 1010.1 |
| 20260510052524 | 46 | 169 | 0.0 | 0.0 | 0.00 | 0.53 | 0.00 | 94 | 1010.1 |
| 20260510052038 | 46 | 169 | 0.0 | 0.0 | 0.00 | 0.53 | 0.00 | 94 | 1010.3 |
| 20260510051552 | 46 | 169 | 0.0 | 0.0 | 0.00 | 0.53 | 0.00 | 93 | 1010.3 |
| 20260510051046 | 46 | 169 | 0.0 | 0.0 | 0.00 | 0.53 | 0.00 | 93 | 1010.3 |
| 20260510050533 | 46 | 169 | 0.0 | 1.0 | 0.00 | 0.53 | 0.00 | 93 | 1010.4 |
| 20260510050027 | 46 | 169 | 0.0 | 1.0 | 0.00 | 0.53 | 0.00 | 93 | 1010.4 |
| 20260510045529 | 46 | 169 | 0.0 | 0.0 | 0.00 | 0.53 | 0.00 | 93 | 1010.4 |
| 20260510045024 | 46 | 169 | 0.0 | 1.0 | 0.00 | 0.53 | 0.00 | 93 | 1010.4 |
| 20260510044538 | 46 | 169 | 0.0 | 0.0 | 0.00 | 0.53 | 0.00 | 93 | 1010.2 |
| 20260510044023 | 47 | 169 | 0.0 | 0.0 | 0.00 | 0.53 | 0.00 | 93 | 1010.2 |
| 20260510043534 | 47 | 169 | 0.0 | 0.0 | 0.00 | 0.53 | 0.00 | 93 | 1010.2 |
| 20260510043038 | 47 | 169 | 0.0 | 0.0 | 0.00 | 0.53 | 0.00 | 93 | 1010.4 |
| 20260510042531 | 47 | 169 | 0.0 | 0.0 | 0.00 | 0.53 | 0.00 | 93 | 1010.4 |
| 20260510042047 | 47 | 169 | 0.0 | 1.0 | 0.00 | 0.53 | 0.00 | 93 | 1010.3 |
| 20260510041533 | 47 | 169 | 0.0 | 1.0 | 0.00 | 0.53 | 0.00 | 93 | 1010.3 |
| 20260510041027 | 47 | 167 | 0.0 | 1.0 | 0.00 | 0.53 | 0.00 | 93 | 1010.4 |
| 20260510040600 | 48 | 167 | 0.0 | 0.0 | 0.00 | 0.53 | 0.00 | 93 | 1010.3 |
| 20260510040025 | 48 | 167 | 0.0 | 0.0 | 0.00 | 0.53 | 0.00 | 93 | 1010.2 |
| 20260510035600 | 48 | 167 | 0.0 | 0.0 | 0.00 | 0.53 | 0.53 | 93 | 1010.2 |
| 20260510035053 | 48 | 167 | 0.0 | 1.0 | 0.00 | 0.53 | 0.53 | 94 | 1010.2 |
| 20260510034547 | 48 | 167 | 0.0 | 1.0 | 0.00 | 0.53 | 0.53 | 94 | 1010.2 |
| 20260510034034 | 48 | 167 | 0.0 | 1.0 | 0.00 | 0.53 | 0.53 | 94 | 1010.0 |
| 20260510033529 | 48 | 167 | 0.0 | 1.0 | 0.00 | 0.53 | 0.53 | 94 | 1010.0 |
| 20260510033036 | 48 | 167 | 0.0 | 0.0 | 0.00 | 0.53 | 0.53 | 94 | 1010.1 |
| 20260510032531 | 47 | 167 | 0.0 | 1.0 | 0.00 | 0.53 | 0.53 | 94 | 1010.2 |
| 20260510032046 | 47 | 167 | 0.0 | 2.0 | 0.00 | 0.53 | 0.53 | 94 | 1010.3 |
| 20260510031551 | 47 | 171 | 0.0 | 0.0 | 0.00 | 0.53 | 0.53 | 93 | 1010.3 |
| 20260510031025 | 47 | 171 | 0.0 | 2.0 | 0.00 | 0.53 | 0.53 | 93 | 1010.3 |
| 20260510030540 | 47 | 171 | 1.0 | 2.0 | 0.00 | 0.53 | 0.53 | 93 | 1010.4 |
| 20260510030026 | 47 | 165 | 0.0 | 0.0 | 0.00 | 0.53 | 0.53 | 93 | 1010.2 |
| 20260510025537 | 47 | 165 | 0.0 | 0.0 | 0.00 | 0.53 | 0.53 | 93 | 1010.3 |
| 20260510025022 | 47 | 165 | 0.0 | 1.0 | 0.00 | 0.53 | 0.53 | 93 | 1010.4 |
| 20260510024537 | 47 | 165 | 0.0 | 1.0 | 0.00 | 0.53 | 0.53 | 93 | 1010.3 |
| 20260510024024 | 47 | 165 | 0.0 | 0.0 | 0.00 | 0.53 | 0.53 | 93 | 1010.2 |
| 20260510023538 | 47 | 165 | 0.0 | 1.0 | 0.00 | 0.53 | 0.53 | 93 | 1010.3 |
| 20260510023033 | 47 | 165 | 0.0 | 1.0 | 0.00 | 0.53 | 0.53 | 93 | 1010.4 |
| 20260510022539 | 47 | 165 | 0.0 | 0.0 | 0.00 | 0.53 | 0.53 | 93 | 1010.3 |
| 20260510022034 | 47 | 165 | 0.0 | 1.0 | 0.00 | 0.53 | 0.53 | 93 | 1010.4 |
| 20260510021549 | 47 | 165 | 0.0 | 1.0 | 0.00 | 0.53 | 0.53 | 93 | 1010.4 |
| 20260510021035 | 47 | 165 | 0.0 | 0.0 | 0.00 | 0.53 | 0.53 | 93 | 1010.2 |
| 20260510020530 | 47 | 165 | 0.0 | 0.0 | 0.00 | 0.53 | 0.53 | 93 | 1010.3 |
| 20260510020045 | 47 | 165 | 0.0 | 1.0 | 0.00 | 0.53 | 0.53 | 93 | 1010.2 |
| 20260510015531 | 47 | 165 | 0.0 | 1.0 | 0.00 | 0.53 | 0.53 | 92 | 1010.1 |
| 20260510015046 | 47 | 165 | 0.0 | 0.0 | 0.00 | 0.53 | 0.53 | 92 | 1010.0 |
| 20260510014531 | 47 | 165 | 0.0 | 0.0 | 0.00 | 0.53 | 0.53 | 92 | 1010.3 |
| 20260510014025 | 47 | 165 | 0.0 | 0.0 | 0.00 | 0.53 | 0.53 | 92 | 1010.2 |
| 20260510013531 | 47 | 165 | 0.0 | 2.0 | 0.00 | 0.53 | 0.53 | 92 | 1010.4 |
| 20260510013026 | 47 | 165 | 0.0 | 2.0 | 0.00 | 0.53 | 0.53 | 92 | 1010.5 |
| 20260510012541 | 47 | 163 | 0.0 | 1.0 | 0.00 | 0.53 | 0.53 | 92 | 1010.6 |
| 20260510012047 | 48 | 163 | 0.0 | 1.0 | 0.00 | 0.53 | 0.53 | 92 | 1010.4 |
| 20260510011540 | 48 | 163 | 0.0 | 1.0 | 0.00 | 0.53 | 0.53 | 92 | 1010.5 |
| 20260510011034 | 48 | 163 | 0.0 | 1.0 | 0.00 | 0.53 | 0.53 | 92 | 1010.5 |
| 20260510010541 | 48 | 163 | 0.0 | 0.0 | 0.00 | 0.53 | 0.53 | 92 | 1010.3 |
| 20260510010035 | 48 | 163 | 0.0 | 1.0 | 0.00 | 0.53 | 0.53 | 92 | 1010.3 |
| 20260510005538 | 48 | 163 | 0.0 | 1.0 | 0.00 | 0.53 | 0.53 | 92 | 1010.2 |
| 20260510005052 | 48 | 163 | 0.0 | 0.0 | 0.00 | 0.53 | 0.53 | 91 | 1010.1 |
| 20260510004525 | 48 | 163 | 0.0 | 1.0 | 0.00 | 0.53 | 0.53 | 91 | 1009.9 |
| 20260510004031 | 49 | 163 | 0.0 | 1.0 | 0.00 | 0.53 | 0.53 | 92 | 1009.9 |
| 20260510003525 | 49 | 163 | 0.0 | 1.0 | 0.00 | 0.53 | 0.53 | 92 | 1009.7 |
| 20260510003040 | 49 | 163 | 0.0 | 2.0 | 0.00 | 0.53 | 0.53 | 92 | 1009.6 |
| 20260510002526 | 49 | 164 | 1.0 | 3.0 | 0.00 | 0.53 | 0.53 | 92 | 1009.5 |
| 20260510002101 | 49 | 164 | 1.0 | 2.0 | 0.00 | 0.53 | 0.53 | 92 | 1009.5 |
| 20260510001534 | 49 | 163 | 0.0 | 0.0 | 0.00 | 0.53 | 0.53 | 91 | 1009.5 |
| 20260510001042 | 49 | 163 | 0.0 | 1.0 | 0.00 | 0.53 | 0.53 | 91 | 1009.5 |
| 20260510000537 | 49 | 163 | 0.0 | 1.0 | 0.00 | 0.53 | 0.53 | 91 | 1009.4 |
| 20260510000048 | 49 | 163 | 0.0 | 2.0 | 0.00 | 0.53 | 0.53 | 91 | 1009.5 |
| 20260509235533 | 49 | 163 | 1.0 | 2.0 | 0.00 | 0.53 | 0.53 | 91 | 1009.4 |
| 20260509235047 | 49 | 121 | 0.0 | 0.0 | 0.00 | 0.53 | 0.53 | 92 | 1009.4 |
| 20260509234533 | 49 | 121 | 0.0 | 0.0 | 0.00 | 0.53 | 0.53 | 92 | 1009.5 |
| 20260509234048 | 49 | 121 | 0.0 | 0.0 | 0.00 | 0.53 | 0.53 | 91 | 1009.4 |
| 20260509233543 | 49 | 121 | 0.0 | 0.0 | 0.00 | 0.53 | 0.53 | 91 | 1009.3 |
| 20260509233028 | 49 | 121 | 0.0 | 0.0 | 0.00 | 0.53 | 0.53 | 91 | 1009.4 |
| 20260509232523 | 49 | 121 | 0.0 | 1.0 | 0.00 | 0.53 | 0.53 | 91 | 1009.4 |
| 20260509232029 | 49 | 121 | 0.0 | 1.0 | 0.00 | 0.53 | 0.53 | 91 | 1009.4 |
| 20260509231541 | 49 | 121 | 0.0 | 2.0 | 0.00 | 0.53 | 0.53 | 91 | 1009.2 |
| 20260509231036 | 49 | 111 | 0.0 | 1.0 | 0.00 | 0.53 | 0.53 | 91 | 1009.3 |
| 20260509230538 | 49 | 113 | 0.0 | 1.0 | 0.00 | 0.53 | 0.53 | 91 | 1009.4 |
| 20260509230032 | 49 | 111 | 0.0 | 2.0 | 0.00 | 0.53 | 0.53 | 91 | 1009.5 |
| 20260509225547 | 49 | 111 | 1.0 | 2.0 | 0.00 | 0.53 | 0.53 | 91 | 1009.4 |
| 20260509225034 | 49 | 111 | 0.0 | 1.0 | 0.00 | 0.53 | 0.53 | 91 | 1009.6 |
| 20260509224549 | 49 | 111 | 0.0 | 2.0 | 0.00 | 0.53 | 0.53 | 91 | 1009.5 |
| 20260509224034 | 49 | 111 | 0.0 | 2.0 | 0.00 | 0.53 | 0.53 | 90 | 1009.5 |
| 20260509223529 | 49 | 125 | 0.0 | 3.0 | 0.00 | 0.53 | 0.53 | 90 | 1009.5 |
| 20260509223104 | 50 | 107 | 0.0 | 1.0 | 0.00 | 0.53 | 0.53 | 90 | 1009.5 |
| 20260509222529 | 50 | 124 | 0.0 | 1.0 | 0.00 | 0.53 | 0.53 | 90 | 1009.5 |
| 20260509222044 | 50 | 124 | 0.0 | 4.0 | 0.00 | 0.53 | 0.53 | 90 | 1009.4 |
| 20260509221538 | 50 | 175 | 1.0 | 4.0 | 0.00 | 0.53 | 0.53 | 90 | 1009.3 |
| 20260509221024 | 50 | 132 | 1.0 | 3.0 | 0.01 | 0.53 | 0.53 | 90 | 1009.4 |
| 20260509220538 | 50 | 284 | 0.0 | 3.0 | 0.01 | 0.53 | 0.53 | 90 | 1009.5 |
| 20260509220053 | 50 | 169 | 0.0 | 3.0 | 0.01 | 0.53 | 0.53 | 90 | 1009.5 |
| 20260509215536 | 50 | 169 | 1.0 | 3.0 | 0.01 | 0.53 | 0.53 | 90 | 1009.5 |
| 20260509215051 | 50 | 163 | 0.0 | 2.0 | 0.01 | 0.53 | 0.53 | 91 | 1009.5 |
| 20260509214545 | 50 | 209 | 0.0 | 5.0 | 0.01 | 0.53 | 0.53 | 90 | 1009.4 |
| 20260509214031 | 50 | 209 | 1.0 | 5.0 | 0.02 | 0.53 | 0.53 | 90 | 1009.4 |
| 20260509213545 | 50 | 281 | 0.0 | 2.0 | 0.02 | 0.53 | 0.53 | 90 | 1009.5 |
| 20260509213032 | 50 | 71 | 0.0 | 3.0 | 0.04 | 0.53 | 0.53 | 90 | 1009.5 |
| 20260509212527 | 50 | 155 | 0.0 | 3.0 | 0.04 | 0.53 | 0.53 | 90 | 1009.6 |
| 20260509212034 | 50 | 169 | 1.0 | 3.0 | 0.05 | 0.53 | 0.53 | 90 | 1009.7 |
| 20260509211528 | 49 | 130 | 1.0 | 3.0 | 0.06 | 0.53 | 0.53 | 90 | 1009.7 |
| 20260509211039 | 50 | 193 | 1.0 | 3.0 | 0.05 | 0.52 | 0.52 | 90 | 1009.7 |
| 20260509210525 | 49 | 32 | 1.0 | 4.0 | 0.06 | 0.52 | 0.52 | 90 | 1009.6 |
| 20260509210040 | 49 | 246 | 0.0 | 4.0 | 0.06 | 0.52 | 0.52 | 90 | 1009.7 |
| 20260509205555 | 50 | 323 | 1.0 | 4.0 | 0.07 | 0.52 | 0.52 | 89 | 1009.7 |
| 20260509205039 | 50 | 139 | 0.0 | 5.0 | 0.07 | 0.52 | 0.52 | 89 | 1009.7 |
| 20260509204533 | 50 | 184 | 0.0 | 4.0 | 0.07 | 0.52 | 0.52 | 90 | 1009.8 |
| 20260509204048 | 50 | 335 | 1.0 | 4.0 | 0.07 | 0.51 | 0.51 | 90 | 1009.8 |
| 20260509203533 | 50 | 130 | 2.0 | 4.0 | 0.06 | 0.50 | 0.50 | 90 | 1010.0 |
| 20260509203045 | 50 | 302 | 1.0 | 3.0 | 0.06 | 0.49 | 0.49 | 91 | 1009.9 |
| 20260509202530 | 50 | 170 | 1.0 | 3.0 | 0.06 | 0.49 | 0.49 | 91 | 1010.0 |
| 20260509202032 | 50 | 169 | 0.0 | 5.0 | 0.06 | 0.48 | 0.48 | 90 | 1010.2 |
| 20260509201538 | 50 | 219 | 2.0 | 5.0 | 0.06 | 0.47 | 0.47 | 90 | 1010.3 |
| 20260509201053 | 50 | 188 | 1.0 | 9.0 | 0.07 | 0.47 | 0.47 | 91 | 1010.3 |
| 20260509200527 | 50 | 205 | 3.0 | 9.0 | 0.07 | 0.46 | 0.46 | 92 | 1010.3 |
| 20260509200034 | 50 | 217 | 1.0 | 5.0 | 0.07 | 0.46 | 0.46 | 92 | 1010.4 |
| 20260509195546 | 50 | 300 | 1.0 | 4.0 | 0.07 | 0.45 | 0.45 | 93 | 1010.4 |
| 20260509195038 | 50 | 186 | 1.0 | 2.0 | 0.07 | 0.45 | 0.45 | 93 | 1010.3 |
| 20260509194525 | 50 | 254 | 0.0 | 2.0 | 0.08 | 0.45 | 0.45 | 93 | 1010.4 |
| 20260509194039 | 50 | 248 | 0.0 | 3.0 | 0.07 | 0.44 | 0.44 | 93 | 1010.5 |
| 20260509193534 | 50 | 196 | 0.0 | 1.0 | 0.08 | 0.44 | 0.44 | 93 | 1010.4 |
| 20260509193039 | 50 | 196 | 0.0 | 1.0 | 0.07 | 0.43 | 0.43 | 93 | 1010.5 |
| 20260509192534 | 49 | 128 | 0.0 | 1.0 | 0.07 | 0.43 | 0.43 | 93 | 1010.5 |
| 20260509192035 | 49 | 128 | 0.0 | 1.0 | 0.07 | 0.42 | 0.42 | 93 | 1010.4 |
| 20260509191527 | 49 | 128 | 0.0 | 1.0 | 0.06 | 0.41 | 0.41 | 93 | 1010.5 |
| 20260509191101 | 49 | 127 | 0.0 | 1.0 | 0.05 | 0.40 | 0.40 | 93 | 1010.4 |
| 20260509190528 | 49 | 127 | 0.0 | 0.0 | 0.04 | 0.39 | 0.39 | 93 | 1010.4 |
| 20260509190023 | 49 | 127 | 0.0 | 1.0 | 0.05 | 0.39 | 0.39 | 92 | 1010.4 |
| 20260509185538 | 49 | 127 | 0.0 | 2.0 | 0.04 | 0.38 | 0.38 | 92 | 1010.5 |
| 20260509185054 | 49 | 127 | 0.0 | 2.0 | 0.05 | 0.38 | 0.38 | 92 | 1010.6 |
| 20260509184538 | 49 | 87 | 0.0 | 0.0 | 0.04 | 0.37 | 0.37 | 92 | 1010.5 |
| 20260509184033 | 48 | 87 | 0.0 | 0.0 | 0.04 | 0.37 | 0.37 | 92 | 1010.4 |
| 20260509183548 | 48 | 87 | 0.0 | 0.0 | 0.03 | 0.36 | 0.36 | 92 | 1010.4 |
| 20260509183031 | 48 | 87 | 0.0 | 0.0 | 0.03 | 0.36 | 0.36 | 92 | 1010.5 |
| 20260509182544 | 48 | 87 | 0.0 | 1.0 | 0.04 | 0.36 | 0.36 | 92 | 1010.5 |
| 20260509182027 | 48 | 84 | 0.0 | 0.0 | 0.03 | 0.35 | 0.35 | 92 | 1010.5 |
| 20260509181541 | 48 | 84 | 0.0 | 1.0 | 0.03 | 0.35 | 0.35 | 92 | 1010.5 |
| 20260509181052 | 48 | 84 | 0.0 | 1.0 | 0.03 | 0.35 | 0.35 | 92 | 1010.5 |
| 20260509180532 | 48 | 150 | 0.0 | 1.0 | 0.02 | 0.34 | 0.34 | 92 | 1010.6 |
| 20260509180026 | 48 | 150 | 0.0 | 1.0 | 0.03 | 0.34 | 0.34 | 92 | 1010.6 |
| 20260509175531 | 48 | 150 | 0.0 | 2.0 | 0.03 | 0.34 | 0.34 | 92 | 1010.6 |
| 20260509175023 | 48 | 151 | 0.0 | 2.0 | 0.02 | 0.33 | 0.33 | 91 | 1010.6 |
| 20260509174535 | 48 | 153 | 1.0 | 2.0 | 0.02 | 0.33 | 0.33 | 92 | 1010.7 |
| 20260509174035 | 48 | 140 | 1.0 | 2.0 | 0.03 | 0.33 | 0.33 | 92 | 1010.8 |
| 20260509173526 | 48 | 159 | 0.0 | 3.0 | 0.03 | 0.33 | 0.33 | 92 | 1010.7 |
| 20260509173031 | 47 | 159 | 1.0 | 3.0 | 0.03 | 0.33 | 0.33 | 92 | 1010.8 |
| 20260509172611 | 47 | 152 | 0.0 | 2.0 | 0.02 | 0.32 | 0.32 | 92 | 1010.8 |
| 20260509172035 | 47 | 151 | 0.0 | 1.0 | 0.02 | 0.32 | 0.32 | 92 | 1010.9 |
| 20260509171527 | 47 | 151 | 0.0 | 3.0 | 0.03 | 0.32 | 0.32 | 92 | 1010.9 |
| 20260509171041 | 47 | 153 | 1.0 | 3.0 | 0.03 | 0.32 | 0.32 | 91 | 1011.1 |
| 20260509170532 | 47 | 153 | 1.0 | 3.0 | 0.03 | 0.32 | 0.32 | 91 | 1011.1 |
| 20260509170037 | 47 | 140 | 0.0 | 1.0 | 0.02 | 0.31 | 0.31 | 92 | 1011.2 |
| 20260509165531 | 47 | 157 | 0.0 | 2.0 | 0.02 | 0.31 | 0.31 | 91 | 1011.3 |
| 20260509165045 | 47 | 157 | 0.0 | 1.0 | 0.03 | 0.31 | 0.31 | 91 | 1011.3 |
| 20260509164531 | 47 | 158 | 0.0 | 2.0 | 0.03 | 0.31 | 0.31 | 91 | 1011.4 |
| 20260509164044 | 47 | 158 | 0.0 | 2.0 | 0.02 | 0.30 | 0.30 | 92 | 1011.3 |
| 20260509163539 | 47 | 157 | 1.0 | 2.0 | 0.02 | 0.30 | 0.30 | 91 | 1011.4 |
| 20260509163054 | 47 | 149 | 1.0 | 2.0 | 0.02 | 0.30 | 0.30 | 91 | 1011.3 |
| 20260509162539 | 47 | 166 | 1.0 | 2.0 | 0.02 | 0.30 | 0.30 | 91 | 1011.3 |
| 20260509162033 | 46 | 166 | 1.0 | 2.0 | 0.02 | 0.30 | 0.30 | 91 | 1011.4 |
| 20260509161548 | 46 | 221 | 0.0 | 1.0 | 0.01 | 0.29 | 0.29 | 91 | 1011.5 |
| 20260509161034 | 46 | 327 | 0.0 | 2.0 | 0.02 | 0.29 | 0.29 | 91 | 1011.5 |
| 20260509160545 | 46 | 37 | 1.0 | 2.0 | 0.02 | 0.29 | 0.29 | 91 | 1011.6 |
| 20260509160031 | 46 | 123 | 0.0 | 2.0 | 0.02 | 0.29 | 0.29 | 91 | 1011.6 |
| 20260509155525 | 46 | 117 | 0.0 | 1.0 | 0.02 | 0.29 | 0.29 | 91 | 1011.6 |
| 20260509155029 | 46 | 117 | 0.0 | 1.0 | 0.01 | 0.28 | 0.28 | 91 | 1011.5 |
| 20260509154523 | 46 | 117 | 0.0 | 1.0 | 0.01 | 0.28 | 0.28 | 91 | 1011.6 |
| 20260509154058 | 45 | 113 | 0.0 | 1.0 | 0.01 | 0.28 | 0.28 | 91 | 1011.7 |
| 20260509153549 | 45 | 113 | 0.0 | 1.0 | 0.01 | 0.28 | 0.28 | 91 | 1011.7 |
| 20260509153034 | 45 | 110 | 0.0 | 1.0 | 0.01 | 0.28 | 0.28 | 91 | 1011.7 |
| 20260509152528 | 45 | 102 | 0.0 | 1.0 | 0.01 | 0.28 | 0.28 | 91 | 1011.7 |
| 20260509152035 | 45 | 182 | 0.0 | 1.0 | 0.02 | 0.28 | 0.28 | 91 | 1011.7 |
| 20260509151537 | 45 | 182 | 0.0 | 1.0 | 0.02 | 0.28 | 0.28 | 91 | 1011.8 |
| 20260509151024 | 45 | 183 | 0.0 | 1.0 | 0.01 | 0.27 | 0.27 | 91 | 1011.8 |
| 20260509150538 | 45 | 183 | 0.0 | 1.0 | 0.02 | 0.27 | 0.27 | 92 | 1011.8 |
| 20260509150024 | 44 | 183 | 0.0 | 1.0 | 0.02 | 0.27 | 0.27 | 92 | 1011.8 |
| 20260509145538 | 44 | 183 | 0.0 | 2.0 | 0.02 | 0.27 | 0.27 | 92 | 1011.8 |
| 20260509145033 | 44 | 183 | 0.0 | 2.0 | 0.03 | 0.27 | 0.27 | 91 | 1011.9 |
| 20260509144541 | 44 | 183 | 0.0 | 1.0 | 0.03 | 0.27 | 0.27 | 92 | 1011.9 |
| 20260509144035 | 44 | 183 | 0.0 | 1.0 | 0.03 | 0.27 | 0.27 | 92 | 1012.0 |
| 20260509143523 | 44 | 182 | 0.0 | 1.0 | 0.03 | 0.27 | 0.27 | 92 | 1011.9 |
| 20260509143037 | 43 | 182 | 0.0 | 0.0 | 0.03 | 0.27 | 0.27 | 92 | 1012.0 |
| 20260509142532 | 43 | 182 | 0.0 | 1.0 | 0.03 | 0.27 | 0.27 | 92 | 1012.1 |
| 20260509142036 | 43 | 182 | 0.0 | 0.0 | 0.02 | 0.26 | 0.26 | 92 | 1012.1 |
| 20260509141551 | 42 | 182 | 0.0 | 1.0 | 0.02 | 0.26 | 0.26 | 92 | 1012.1 |
| 20260509141045 | 42 | 181 | 0.0 | 1.0 | 0.03 | 0.26 | 0.26 | 92 | 1012.2 |
| 20260509140556 | 42 | 182 | 0.0 | 1.0 | 0.02 | 0.25 | 0.25 | 92 | 1012.2 |
| 20260509140040 | 42 | 182 | 0.0 | 2.0 | 0.02 | 0.25 | 0.25 | 92 | 1012.2 |
| 20260509135535 | 42 | 183 | 0.0 | 2.0 | 0.01 | 0.24 | 0.24 | 92 | 1012.2 |
| 20260509135049 | 42 | 196 | 0.0 | 2.0 | 0.01 | 0.24 | 0.24 | 92 | 1012.2 |
| 20260509134532 | 42 | 229 | 0.0 | 1.0 | 0.01 | 0.24 | 0.24 | 92 | 1012.2 |
| 20260509134047 | 42 | 232 | 0.0 | 1.0 | 0.01 | 0.24 | 0.24 | 93 | 1012.1 |
| 20260509133532 | 41 | 205 | 0.0 | 2.0 | 0.01 | 0.24 | 0.24 | 93 | 1012.2 |
| 20260509133025 | 41 | 209 | 0.0 | 2.0 | 0.02 | 0.24 | 0.24 | 92 | 1012.3 |
| 20260509132531 | 41 | 211 | 0.0 | 1.0 | 0.02 | 0.24 | 0.24 | 92 | 1012.4 |
| 20260509132026 | 41 | 211 | 0.0 | 0.0 | 0.02 | 0.24 | 0.24 | 93 | 1012.5 |
| 20260509131541 | 41 | 211 | 0.0 | 1.0 | 0.02 | 0.24 | 0.24 | 93 | 1012.5 |
| 20260509131027 | 41 | 221 | 0.0 | 1.0 | 0.01 | 0.23 | 0.23 | 92 | 1012.6 |
| 20260509130601 | 41 | 229 | 0.0 | 0.0 | 0.01 | 0.23 | 0.23 | 93 | 1012.5 |
| 20260509130034 | 40 | 231 | 0.0 | 0.0 | 0.02 | 0.23 | 0.23 | 93 | 1012.6 |
| 20260509125608 | 40 | 234 | 0.0 | 1.0 | 0.02 | 0.23 | 0.23 | 93 | 1012.7 |
| 20260509125053 | 40 | 234 | 0.0 | 1.0 | 0.02 | 0.23 | 0.23 | 93 | 1012.5 |
| 20260509124525 | 40 | 234 | 0.0 | 2.0 | 0.02 | 0.23 | 0.23 | 93 | 1012.6 |
| 20260509124040 | 40 | 236 | 0.0 | 2.0 | 0.02 | 0.23 | 0.23 | 93 | 1012.7 |
| 20260509123525 | 40 | 268 | 0.0 | 0.0 | 0.02 | 0.23 | 0.23 | 93 | 1012.5 |
| 20260509123040 | 40 | 268 | 0.0 | 0.0 | 0.01 | 0.22 | 0.22 | 93 | 1012.6 |
| 20260509122526 | 40 | 271 | 0.0 | 1.0 | 0.01 | 0.22 | 0.22 | 93 | 1012.7 |
| 20260509122037 | 40 | 287 | 0.0 | 0.0 | 0.01 | 0.22 | 0.22 | 93 | 1012.6 |
| 20260509121551 | 40 | 290 | 0.0 | 0.0 | 0.01 | 0.22 | 0.22 | 93 | 1012.6 |
| 20260509121048 | 40 | 290 | 0.0 | 0.0 | 0.01 | 0.22 | 0.22 | 93 | 1012.6 |
| 20260509120530 | 40 | 291 | 0.0 | 0.0 | 0.01 | 0.22 | 0.22 | 93 | 1012.6 |
| 20260509120045 | 40 | 291 | 0.0 | 0.0 | 0.00 | 0.21 | 0.21 | 93 | 1012.7 |
| 20260509115558 | 40 | 291 | 0.0 | 0.0 | 0.01 | 0.21 | 0.21 | 93 | 1012.6 |
| 20260509115044 | 40 | 291 | 0.0 | 0.0 | 0.01 | 0.21 | 0.21 | 93 | 1012.7 |
| 20260509114537 | 39 | 291 | 0.0 | 0.0 | 0.02 | 0.21 | 0.21 | 93 | 1012.7 |
| 20260509114053 | 39 | 291 | 0.0 | 0.0 | 0.02 | 0.21 | 0.21 | 93 | 1012.7 |
| 20260509113547 | 39 | 291 | 0.0 | 0.0 | 0.02 | 0.21 | 0.21 | 93 | 1012.7 |
| 20260509113031 | 39 | 291 | 0.0 | 0.0 | 0.03 | 0.21 | 0.21 | 93 | 1012.8 |